Noatak, AK

10:13 PM AKST on February 09, 2016 (GMT -0900)
Noatak

Weather History for PAWN - March, 2013

Change the Weather History Date:

Tuesday, March 12, 2013

  Actual Average Record
Temperature  
Mean Temperature -8 °F -  
Max Temperature 3 °F 10 °F 28 °F (2005)
Min Temperature -20 °F -2 °F -36 °F (1999)
Degree Days  
Heating Degree Days 74    
Moisture  
Dew Point -18 °F    
Average Humidity 67    
Maximum Humidity 92    
Minimum Humidity 46    
Precipitation  
Precipitation 0.00 in - - ()
Sea Level Pressure  
Sea Level Pressure 30.67 in    
Wind  
Wind Speed 1 mph (NNW)    
Max Wind Speed 6 mph    
Max Gust Speed -    
Visibility 10 miles    
Events      
Averages and records for this station are not official NWS values.
T = Trace of Precipitation, MM = Missing Value Source: NWS Daily Summary

Daily Weather History Graph

Daily Weather History Graph

Search for Another Location

Airport or City:

Trip Planner

Search our weather history database for the weather conditions in past years. The results will help you decide how hot, cold, wet, or windy it might be!

Date:

Astronomy

Mar. 12, 2013 Rise Set
Actual Time 9:22 AM AKDT 8:42 PM AKDT
Civil Twilight 8:28 AM AKDT 9:36 PM AKDT
Nautical Twilight 7:23 AM AKDT 10:42 PM AKDT
Astronomical Twilight 6:10 AM AKDT 11:56 PM AKDT
Moon 8:51 AM AKDT (3/12) 11:12 PM AKDT (3/12)
Length of Visible Light 13h 08m
Length of Day
11h 19m
New Moon, 1% of the Moon is Illuminated
Mar 12
New Moon
Mar 19
First Quarter
Mar 27
Full
Apr 2
Last Quarter
Apr 10
New

Hourly Weather History & Observations

Time (AKDT) Temp. Windchill Dew Point Humidity Pressure Visibility Wind Dir Wind Speed Gust Speed Precip Events Conditions
12:16 AM -11.2 °F - -16.6 °F 77% 30.77 in 10.0 mi Calm Calm - N/A   Clear
12:36 AM -11.2 °F - -23.8 °F 54% 30.77 in 9.0 mi Calm Calm - N/A   Clear
12:56 AM -13.0 °F - -18.4 °F 77% 30.78 in 10.0 mi Calm Calm - N/A   Clear
1:16 AM -14.8 °F - -23.8 °F 64% 30.77 in 10.0 mi Calm Calm - N/A   Clear
1:36 AM -14.8 °F - -18.4 °F 84% 30.77 in 10.0 mi Calm Calm - N/A   Clear
1:56 AM -14.8 °F - -25.6 °F 58% 30.78 in 8.0 mi Calm Calm - N/A   Clear
2:16 AM -14.8 °F - -22.0 °F 70% 30.77 in 10.0 mi Calm Calm - N/A   Clear
2:36 AM -16.6 °F - -23.8 °F 70% 30.77 in 10.0 mi Calm Calm - N/A   Clear
2:56 AM -16.6 °F -31.3 °F -27.4 °F 58% 30.77 in 10.0 mi NNW 5.8 mph - N/A   Clear
3:16 AM -14.8 °F -27.2 °F -23.8 °F 64% 30.77 in 10.0 mi North 4.6 mph - N/A   Clear
3:36 AM -14.8 °F -24.8 °F -22.0 °F 70% 30.76 in 10.0 mi North 3.5 mph - N/A   Clear
3:56 AM -16.6 °F -26.8 °F -25.6 °F 64% 30.77 in 10.0 mi NNW 3.5 mph - N/A   Clear
4:16 AM -14.8 °F -24.8 °F -20.2 °F 77% 30.76 in 10.0 mi NNW 3.5 mph - N/A   Clear
4:36 AM -14.8 °F - -23.8 °F 64% 30.76 in 10.0 mi Calm Calm - N/A   Clear
4:56 AM -14.8 °F - -22.0 °F 70% 30.75 in 10.0 mi Calm Calm - N/A   Clear
5:16 AM -16.6 °F - -25.6 °F 64% 30.75 in 10.0 mi Calm Calm - N/A   Clear
5:36 AM -16.6 °F - -23.8 °F 70% 30.75 in 10.0 mi Calm Calm - N/A   Clear
5:56 AM -18.4 °F - -27.4 °F 63% 30.74 in 10.0 mi Calm Calm - N/A   Clear
6:16 AM -18.4 °F - -27.4 °F 63% 30.74 in 10.0 mi Calm Calm - N/A   Clear
6:36 AM -14.8 °F - -16.6 °F 92% 30.74 in 10.0 mi Calm Calm - N/A   Clear
6:56 AM -18.4 °F - - N/A% 30.73 in 10.0 mi Calm Calm - N/A   Clear
7:16 AM -18.4 °F - -27.4 °F 63% 30.73 in 10.0 mi Calm Calm - N/A   Clear
7:36 AM -18.4 °F - -25.6 °F 70% 30.73 in 10.0 mi Calm Calm - N/A   Clear
7:56 AM -16.6 °F - -25.6 °F 64% 30.72 in 9.0 mi Calm Calm - N/A   Clear
8:16 AM -18.4 °F - -23.8 °F 76% 30.72 in 10.0 mi Calm Calm - N/A   Clear
8:36 AM -20.2 °F - - N/A% 30.72 in 10.0 mi Calm Calm - N/A   Clear
8:56 AM -18.4 °F -28.9 °F -27.4 °F 63% 30.72 in 10.0 mi NNE 3.5 mph - N/A   Clear
9:16 AM -16.6 °F - -22.0 °F 76% 30.71 in 8.0 mi Calm Calm - N/A   Clear
9:36 AM -18.4 °F -28.9 °F -29.2 °F 58% 30.71 in 7.0 mi NNE 3.5 mph - N/A   Clear
9:56 AM -18.4 °F - -23.8 °F 76% 30.71 in 2.5 mi Calm Calm - N/A   Clear
10:16 AM -16.6 °F - -25.6 °F 64% 30.70 in 10.0 mi Calm Calm - N/A   Clear
10:36 AM -16.6 °F - -25.6 °F 64% 30.70 in 10.0 mi Calm Calm - N/A   Clear
10:56 AM -14.8 °F - -22.0 °F 70% 30.70 in 10.0 mi Calm Calm - N/A   Clear
11:16 AM -14.8 °F - -23.8 °F 64% 30.70 in 10.0 mi Calm Calm - N/A   Clear
11:36 AM -13.0 °F - -20.2 °F 70% 30.69 in 10.0 mi Calm Calm - N/A   Clear
11:56 AM -13.0 °F - -23.8 °F 59% 30.69 in 9.0 mi Calm Calm - N/A   Clear
12:16 PM -11.2 °F - -18.4 °F 70% 30.69 in 10.0 mi Calm Calm - N/A   Clear
12:36 PM -9.4 °F - -20.2 °F 59% 30.69 in 10.0 mi Calm Calm - N/A   Clear
12:56 PM -9.4 °F - -14.8 °F 77% 30.69 in 10.0 mi Calm Calm - N/A   Clear
1:16 PM -7.6 °F - -14.8 °F 71% 30.68 in 10.0 mi Calm Calm - N/A   Clear
1:36 PM -9.4 °F - -18.4 °F 65% 30.68 in 10.0 mi Calm Calm - N/A   Clear
1:56 PM -7.6 °F - -11.2 °F 84% 30.68 in 10.0 mi Calm Calm - N/A   Clear
2:16 PM -7.6 °F - -18.4 °F 59% 30.67 in 10.0 mi Calm Calm - N/A   Clear
2:36 PM -5.8 °F - -7.6 °F 92% 30.67 in 10.0 mi Calm Calm - N/A   Clear
2:56 PM -5.8 °F -14.5 °F -14.8 °F 65% 30.66 in 10.0 mi WNW 3.5 mph - N/A   Clear
3:16 PM -4.0 °F -12.4 °F -14.8 °F 60% 30.66 in 10.0 mi WNW 3.5 mph - N/A   Clear
3:36 PM -2.2 °F - -5.8 °F 85% 30.65 in 10.0 mi Calm Calm - N/A   Clear
3:56 PM -2.2 °F - -16.6 °F 50% 30.64 in 10.0 mi Calm Calm - N/A   Mostly Cloudy
4:16 PM -0.4 °F - -13.0 °F 55% 30.63 in 10.0 mi Calm Calm - N/A   Partly Cloudy
4:36 PM -0.4 °F - -7.6 °F 72% 30.63 in 10.0 mi Calm Calm - N/A   Clear
4:56 PM -0.4 °F - -16.6 °F 46% 30.62 in 10.0 mi Calm Calm - N/A   Clear
5:16 PM -0.4 °F - -9.4 °F 66% 30.61 in 10.0 mi Calm Calm - N/A   Scattered Clouds
5:36 PM -0.4 °F - -7.6 °F 72% 30.60 in 10.0 mi Calm Calm - N/A   Mostly Cloudy
5:56 PM 1.4 °F - -14.8 °F 47% 30.60 in 10.0 mi Calm Calm - N/A   Scattered Clouds
6:16 PM 1.4 °F - -11.2 °F 56% 30.59 in 10.0 mi Calm Calm - N/A   Mostly Cloudy
6:36 PM 1.4 °F - -9.4 °F 61% 30.59 in 10.0 mi Calm Calm - N/A   Scattered Clouds
6:56 PM 1.4 °F - -11.2 °F 56% 30.58 in 10.0 mi Calm Calm - N/A   Scattered Clouds
7:16 PM 1.4 °F - -11.2 °F 56% 30.57 in 10.0 mi Calm Calm - N/A   Overcast
7:36 PM 1.4 °F - -5.8 °F 72% 30.56 in 10.0 mi Calm Calm - N/A   Mostly Cloudy
7:56 PM 1.4 °F - -9.4 °F 61% 30.56 in 10.0 mi Calm Calm - N/A   Partly Cloudy
8:16 PM 1.4 °F - -11.2 °F 56% 30.56 in 10.0 mi Calm Calm - N/A   Mostly Cloudy
8:36 PM 1.4 °F - -11.2 °F 56% 30.55 in 10.0 mi Calm Calm - N/A   Scattered Clouds
8:56 PM 1.4 °F - -5.8 °F 72% 30.55 in 10.0 mi Calm Calm - N/A   Mostly Cloudy
9:56 PM 3.2 °F - - N/A% 30.54 in 10.0 mi Calm Calm - N/A   Scattered Clouds
10:16 PM 3.2 °F -4.2 °F -7.6 °F 61% 30.54 in 10.0 mi NW 3.5 mph - N/A   Partly Cloudy
10:36 PM 1.4 °F - -2.2 °F 85% 30.53 in 10.0 mi Calm Calm - N/A   Clear
10:56 PM 1.4 °F - -9.4 °F 61% 30.53 in 10.0 mi Calm Calm - N/A   Clear
11:16 PM 1.4 °F - -14.8 °F 47% 30.53 in 10.0 mi Calm Calm - N/A   Clear
11:36 PM 1.4 °F - -7.6 °F 66% 30.52 in 10.0 mi Calm Calm - N/A   Clear
11:56 PM 1.4 °F - -0.4 °F 92% 30.52 in 10.0 mi Calm Calm - N/A   Clear